Location: LDNL
(36.4545°S, 141.6685°E)
Time: 21:29:38
(UTC+11:00)

Courier 1B Rocket - Pass Details

Date: 03 February 2023
Orbit: 920 x 1202 km, 28.2° (Epoch: 26 March)

Event Time Altitude Azimuth Distance (km) Brightness Sun altitude
Rises 11:53:59 0° 276° (W) 4,054 8.0 58.1°
Reaches altitude 10° 11:57:56 10° 293° (WNW) 3,047 7.5 58.8°
Maximum altitude 12:02:36 18° 332° (NNW) 2,455 7.4 59.6°
Drops below altitude 10° 12:07:06 10° 11° (NNE) 2,912 8.0 60.3°
Sets 12:10:46 0° 30° (NNE) 3,804 8.5 60.9°
